Simultaneous Nadir Overpasses (SNOs) Predictions

Prediction of SNOs between GOES-15 and METOP-A Satellite Orbit:

Table of predicted SNOs for the next 14.0 days since TLE Epoch: 8/2/2019
Index Date Time (GOES-15) GOES-15 Lat,Lon METOP-A Lat,Lon Distance(km) Time Diff (sec)
1 08/03/2019 17:47:40 -0.05,-128.31 0.53,-130.91 296.54 80
2 08/04/2019 17:24:13 -0.08,-128.33 -0.62,-125.90 276.17 80
3 08/06/2019 05:45:39 0.04,-128.34 -0.42,-130.46 241.25 80
4 08/07/2019 05:22:07 0.07,-128.35 0.69,-125.42 332.96 80
5 08/08/2019 17:43:18 -0.03,-128.39 0.29,-129.93 174.60 80
6 08/09/2019 17:19:42 -0.05,-128.40 -0.84,-124.88 401.61 80
7 08/11/2019 05:40:54 0.01,-128.41 -0.18,-129.38 110.30 80
8 08/12/2019 05:17:15 0.04,-128.42 0.98,-124.32 467.28 80
9 08/13/2019 17:38:11 -0.01,-128.44 0.04,-128.76 35.36 80
10 08/16/2019 05:32:46 0.00,-128.46 0.09,-128.13 38.28 80




NCC Satellite Simultaneous Nadir Overpasses (SNOs) Prediction Service
